Tracking 27419 objects as of 9-Jun-2023
HD Live streaming from Space Station
objects crossing your sky now

DELTA 1 DEB

Track DELTA 1 DEB now!
10-day predictions


NORAD ID: 7195
Int'l Code: 1973-086FD
Perigee: 852.9 km
Apogee: 1,315.4 km
Inclination: 103.2 °
Period: 106.8 minutes
Semi major axis: 7455 km
RCS: 0.0204 m2 (small)
Launch date: November 6, 1973
Source: United States (US)
Launch site: AIR FORCE WESTERN TEST RANGE (AFWTR)

Note: This is SATELLITE DEBRIS
Your satellite tracking list
Your tracking list is empty




NASA's NSSDC Master Catalog

Two Line Element Set (TLE):
1 07195U 73086FD  23159.11253919  .00001419  00000-0  17769-2 0  9994
2 07195 103.1796 111.0900 0310184 208.6992 149.6748 13.48700772405272
Source of the keplerian elements: AFSPC